Spring Mountain Youth Camp, Nevada Weather observations

Data are for 60 minute period ending at time listed.
 Day   Time   Solar   Ave.   Ave.  Ave.  Vector  Max.   Baro.   Total    
  of    of     Rad.   Air    Rel.  Wind   Wind   Wind  Press.  Precip.   
Year   Day            Temp.  Hum.  Speed  Dir.   Gust                    
2016   (PST)  Kw/m2    F      %     mph   deg.    mph    mb.     in.     
-------------------------------------------------------------------------
 273    1:00   0.00  99999.0   99999    9.3   99999   99999.0   99999.0   99999.00 
 273    2:00   0.00  99999.0   99999    7.4   99999   99999.0   99999.0   99999.00 
 273    3:00   0.00  99999.0   99999    6.0   99999   99999.0   99999.0   99999.00 
 273    4:00   0.00  99999.0   99999    5.0   99999   99999.0   99999.0   99999.00 
 273    5:00   0.00  99999.0   99999    3.8   99999   99999.0   99999.0   99999.00 
 273    6:00   0.00  99999.0   99999    6.4   99999   99999.0   99999.0   99999.00 
 273    7:00   0.08  99999.0   99999    8.5   99999   99999.0   99999.0   99999.00 
 273    8:00   0.40  99999.0   99999   11.5   99999   99999.0   99999.0   99999.00 
 273    9:00   0.24  99999.0   99999   10.5   99999   99999.0   99999.0   99999.00 
 273   10:00   0.31  99999.0   99999    6.5   99999   99999.0   99999.0   99999.00 
 273   11:00   0.43  99999.0   99999    3.1   99999   99999.0   99999.0   99999.00 
 273   12:00   0.17  99999.0   99999    3.9   99999   99999.0   99999.0   99999.00 
 273   13:00   0.33  99999.0   99999    3.1   99999   99999.0   99999.0   99999.00 
 273   14:00   0.20  99999.0   99999    2.8   99999   99999.0   99999.0   99999.00 
 273   15:00   0.16  99999.0   99999    2.6   99999   99999.0   99999.0   99999.00 
 273   16:00   0.08  99999.0   99999    2.1   99999   99999.0   99999.0   99999.00 
 273   17:00   0.04  99999.0   99999    3.4   99999   99999.0   99999.0   99999.00 
 273   18:00   0.01  99999.0   99999    6.3   99999   99999.0   99999.0   99999.00 
 273   19:00   0.00  99999.0   99999    4.5   99999   99999.0   99999.0   99999.00 
 273   20:00   0.00  99999.0   99999    4.6   99999   99999.0   99999.0   99999.00 
 273   21:00   0.00  99999.0   99999    5.7   99999   99999.0   99999.0   99999.00 
 273   22:00   0.00  99999.0   99999    5.7   99999   99999.0   99999.0   99999.00 
 273   23:00   0.00  99999.0   99999    6.5   99999   99999.0   99999.0   99999.00 
 274    0:00   0.00  99999.0   99999    8.7   99999   99999.0   99999.0   99999.00 

Return to Spring Mountain Youth Camp graphs page.


Western Regional Climate Center,wrcc@dri.edu